2018-099A (43758 NORAD) Tracking and Keplerian Element Data

This shows tracking and keplerian element data for the satellite.

Feedback or suggestion? Click here.




ElementValue
Catalog43758
Name2018-099A
Epoch Orbit100
Epoch Day344.44342007
Epoch Year2018
RAAN53.5374
Inclination97.768
Eccentricity0.0014562
Argument of Perigee239.0356
Mean Anonmoly120.9435
Mean Motion14.95257042
Decay Rate1.2E-07
L11 43758U 18099A 18344.44342007 .00000012 00000-0 63889-5 0 9990
L22 43758 97.7680 53.5374 0014562 239.0356 120.9435 14.95257042 1003

Live tracking and technical data element details for 2018-099A (NORAD 43758). 2018-099A can be tracked NOW for your location showing map with azimuth and elevation plus other details from your city location.

Track the satellite on the map from your city or location and see movement details for azimuth, elevation, latitude, longitude, range, height, and movement on the map or in text.







IsCatalogInMostPopularTable: catalog: 43758, numindb: 4
Update: records affected: 1



GetName: 43758 2018-099A

Hit Count: updated at: Tue, 11 Dec 2018 02:49:28 GMT